Weather History for Redmond, OR

Change the Weather History Date:

Tuesday, October 25, 2011

  Actual Average Record
Temperature  
Mean Temperature 32 °F 44 °F  
Max Temperature 51 °F 59 °F 84 °F (1988)
Min Temperature 13 °F 30 °F 13 °F (2011)
Degree Days  
Heating Degree Days 33 21  
Month to date heating degree days 431 417  
Since 1 July heating degree days 701 816  
Cooling Degree Days 0 0  
Month to date cooling degree days 0 0  
Year to date cooling degree days 155 222  
Moisture  
Dew Point 20 °F    
Average Humidity 64    
Maximum Humidity 92    
Minimum Humidity 36    
Precipitation  
Precipitation 0.00 in 0.02 in 0.82 in (1956)
Month to date precipitation 0.31 0.48  
Year to date precipitation 5.68 6.62  
Sea Level Pressure  
Sea Level Pressure 30.39 in    
Wind  
Wind Speed 3 mph (SSE)    
Max Wind Speed 14 mph    
Max Gust Speed 17 mph    
Visibility 10 miles    
Events      
T = Trace of Precipitation, MM = Missing Value Source: NWS Daily Summary

Daily Weather History Graph

Daily Weather History Graph

Search for Another Location

Airport:

Trip Planner

Search our weather history database for the weather conditions in past years. The results will help you decide how hot, cold, wet, or windy it might be!

Date:

Astronomy

Oct. 25, 2011 Rise Set
Actual Time 7:32 AM PDT 6:04 PM PDT
Civil Twilight 7:02 AM PDT 6:34 PM PDT
Nautical Twilight 6:28 AM PDT 7:08 PM PDT
Astronomical Twilight 5:54 AM PDT 7:41 PM PDT
Moon 6:09 AM PDT (10/25) 5:09 PM PDT (10/25)
Length of Visible Light 11h 31m
Length of Day
10h 32m
Waning Crescent, 2% of the Moon is Illuminated
Oct 25
Waning Crescent
Oct 26
New
Nov 2
First Quarter
Nov 10
Full
Nov 18
Last Quarter

Hourly Weather History & Observations

Time (PDT) Temp. Windchill Dew Point Humidity Pressure Visibility Wind Dir Wind Speed Gust Speed Precip Events Conditions
12:56 AM 21.9 °F 17.2 °F 19.0 °F 89% 30.34 in 10.0 mi South 3.5 mph - N/A   Clear
1:56 AM 23.0 °F 17.0 °F 19.0 °F 85% 30.34 in 10.0 mi SSE 4.6 mph - N/A   Clear
2:56 AM 21.9 °F 17.2 °F 18.0 °F 85% 30.35 in 10.0 mi South 3.5 mph - N/A   Clear
3:56 AM 19.9 °F 13.4 °F 17.1 °F 89% 30.35 in 10.0 mi South 4.6 mph - N/A   Clear
4:56 AM 19.9 °F - 17.1 °F 89% 30.36 in 10.0 mi Calm Calm - N/A   Clear
5:56 AM 19.0 °F 13.9 °F 16.0 °F 88% 30.38 in 10.0 mi SSE 3.5 mph - N/A   Clear
6:56 AM 19.0 °F 13.9 °F 16.0 °F 88% 30.39 in 10.0 mi ENE 3.5 mph - N/A   Clear
7:56 AM 17.1 °F 11.7 °F 12.9 °F 84% 30.42 in 10.0 mi SE 3.5 mph - N/A   Clear
8:56 AM 27.0 °F 23.0 °F 21.9 °F 81% 30.43 in 10.0 mi South 3.5 mph - N/A   Clear
9:56 AM 34.0 °F - 23.0 °F 64% 30.43 in 10.0 mi Calm Calm - N/A   Clear
10:56 AM 39.0 °F - 26.1 °F 60% 30.44 in 10.0 mi Calm Calm - N/A   Clear
11:56 AM 43.0 °F - 26.1 °F 51% 30.43 in 10.0 mi Calm Calm - N/A   Clear
12:56 PM 46.4 °F - 24.8 °F 43% 30.35 in 10.0 mi Calm Calm - N/A   Clear
1:56 PM 48.9 °F - 23.0 °F 36% 30.38 in 10.0 mi Variable 3.5 mph - N/A   Clear
2:56 PM 48.9 °F - 27.0 °F 43% 30.37 in 10.0 mi Variable 4.6 mph - N/A   Clear
3:56 PM 50.0 °F - 26.1 °F 39% 30.38 in 10.0 mi NNW 11.5 mph - N/A   Clear
4:56 PM 48.9 °F - 23.0 °F 36% 30.38 in 10.0 mi NNW 12.7 mph - N/A   Clear
5:56 PM 45.0 °F 42.6 °F 21.0 °F 39% 30.40 in 10.0 mi North 4.6 mph - N/A   Clear
6:56 PM 36.0 °F - 19.0 °F 50% 30.43 in 10.0 mi Calm Calm - N/A   Clear
7:56 PM 30.0 °F 26.5 °F 17.1 °F 59% 30.45 in 10.0 mi NNW 3.5 mph - N/A   Clear
8:56 PM 26.6 °F - 15.8 °F 64% 30.35 in 10.0 mi Calm Calm - N/A   Clear
9:56 PM 25.0 °F - 17.1 °F 72% 30.45 in 10.0 mi Calm Calm - N/A   Clear
10:56 PM 28.0 °F 22.8 °F 18.0 °F 66% 30.43 in 10.0 mi West 4.6 mph - N/A   Clear
11:56 PM 23.0 °F 17.0 °F 15.1 °F 72% 30.44 in 10.0 mi South 4.6 mph - N/A   Clear